STARLINK-2025 (47607 NORAD) Tracking and Keplerian Element Data

This shows tracking and keplerian element data for the satellite.

Feedback or suggestion? Click here.




ElementValue
Catalog47607
NameSTARLINK-2025
Epoch Orbit407
Epoch Day57.16667824
Epoch Year2021
RAAN16.3932
Inclination53.0535
Eccentricity9.69E-05
Argument of Perigee66.4974
Mean Anonmoly284.6483
Mean Motion15.62753007
Decay Rate-0.00030417
L11 47607U 21009BM 21057.16667824 -.00030417 00000-0 -32762-3 0 9991
L22 47607 53.0535 16.3932 0000969 66.4974 284.6483 15.62753007 4073

Live tracking and technical data element details for STARLINK-2025 (NORAD 47607). STARLINK-2025 can be tracked NOW for your location showing map with azimuth and elevation plus other details from your city location.

Track the satellite on the map from your city or location and see movement details for azimuth, elevation, latitude, longitude, range, height, and movement on the map or in text.







IsCatalogInMostPopularTable: catalog: 47607, numindb: 1
Update: records affected: 1



GetName: 47607 STARLINK-2025

Hit Count: updated at: Fri, 26 Feb 2021 09:22:09 GMT